Location: Poprad
(49.0500°N, 20.3000°E)
Time: 02:47:30
(UTC+02:00)

RS-44 - Visible Passes

Search period start: 19 April 2024 00:00
Search period end: 29 April 2024 00:00
Orbit: 1175 x 1510 km, 82.5° (Epoch: 18 April)

Date Brightness Start Highest point End Pass type
(mag) Time Alt. Az. Time Alt. Az. Time Alt. Az.
19 Apr ? 21:02:57 10° SSW 21:11:49 75° WNW 21:20:18 10° N visible
19 Apr ? 23:00:38 10° W 23:06:49 21° NW 23:12:48 10° N visible
20 Apr ? 05:00:21 10° NNE 05:03:42 13° NE 05:06:57 10° ENE visible
20 Apr ? 21:27:13 10° SSW 21:35:48 53° WNW 21:44:00 10° N visible
20 Apr ? 23:27:13 10° WNW 23:31:29 14° NW 23:35:40 10° NNW visible
21 Apr ? 19:57:26 10° S 20:06:04 61° E 20:14:16 10° NNE visible
21 Apr ? 21:51:57 10° SW 21:59:56 38° WNW 22:07:36 10° N visible
22 Apr ? 20:20:56 10° S 20:29:46 86° E 20:38:10 10° N visible
22 Apr ? 22:17:13 10° WSW 22:24:15 26° WNW 22:31:02 10° N visible
23 Apr ? 20:44:52 10° SSW 20:53:38 69° WNW 21:01:56 10° N visible
23 Apr ? 22:43:09 10° W 22:48:46 18° NW 22:54:12 10° NNW visible
24 Apr ? 04:41:50 10° NNE 04:45:36 14° NE 04:49:16 10° ENE visible
24 Apr ? 21:09:15 10° SW 21:17:38 48° WNW 21:25:36 10° N visible
24 Apr ? 23:10:10 10° WNW 23:13:29 12° NW 23:16:44 10° NNW visible
25 Apr ? 21:34:08 10° SW 21:41:48 34° WNW 21:49:08 10° N visible
26 Apr ? 21:59:34 10° WSW 22:06:09 24° WNW 22:12:30 10° N visible
27 Apr ? 04:02:38 10° NE 04:02:43 10° NE 04:02:46 10° NE visible
27 Apr ? 20:26:49 10° SSW 20:35:25 62° WNW 20:43:32 10° N visible
27 Apr ? 22:25:45 10° W 22:30:43 16° NW 22:35:32 10° NNW visible
28 Apr ? 04:23:20 10° NNE 04:27:29 15° NE 04:31:30 10° E visible
28 Apr ? 20:51:20 10° SW 20:59:28 43° WNW 21:07:09 10° N visible
28 Apr ? 22:53:32 10° WNW 22:55:29 11° NW 22:57:24 10° NNW visible
